User: anonymous   Login
Location: Boca do Mato
(22.9085°S, 43.2930°W)
Time: 00:31:11
(UTC+00:00)
Language:

Cosmos 1689 Rocket - Orbit

View from above orbital plane
View from above orbital plane
View from above satellite
View from above satellite

Ground track
Ground track

The orbit data is extracted from the following two-line orbital elements,

1 16111U 85090B   20273.45249009 +.00014857 +00000-0 +14921-3 0  9994
2 16111 097.4852 092.8079 0009312 240.8058 119.2270 15.65537162931291
Epoch (UTC): 29 September 2020 10:51:35
Eccentricity: 0.0009312
inclination: 97.4852°
perigee height: 365 km
apogee height: 378 km
right ascension of ascending node: 92.8079°
argument of perigee: 240.8058°
revolutions per day: 15.65537162
mean anomaly at epoch: 119.2270°
orbit number at epoch: 93129

The dashed part of the orbit path shows where the satellite is in the earth's shadow,  

DLR